星链-6343 (STARLINK-6343 )

导读

STARLINK-6343是美国SpaceX星链卫星互联网项目的卫星,于2023年7月16日发射升空,隶属于美国太空探索技术公司。作为星链低轨卫星星座的组成部分,它承担着为全球提供高速互联网接入服务的任务,进一步扩充了星链星座的卫星规模,强化了星座整体服务覆盖能力与网络稳定性,推进星链全球组网进程。

基本信息
目录编号:
57362
目录名称:
STARLINK-6343
国际标识:
2023-099AL
轨道中心:
EARTH
卫星名称:
星链-6343
卫星全名:
星链-6343 (STARLINK-6343 )
卫星状态:
在轨 (已飞行1156 天)
发射日期:
2023-07-16 UTC
国别 :
美国 (US)
星等 :
--
该卫星已列入 空间交会检测服务 Space Conjunction Data Service (SCDS) ,当前飞行风险评估等级: 无高风险
轨道信息
数据来源 国际轨道数据 AOE轨道数据
星历时间 2026-09-14T14:31:31+0800
14小时前
查看轨道信息
2026-09-10T07:00:00+0800
4天前
查看轨道信息
半长轴 6861.206km 6861.173km
偏心率 0.0001513 0.0000032
轨道倾角 43.003° 43.002°
近地点辐角 270.405° 197.683°
升交点赤经 256.401° 280.763°
平近点角 89.663° 173.159°
近地点 482.03km 483.014km
远地点 484.108km 483.058km
周期 94.267分钟 94.266分钟
每日圈数 15.275735 15.275844
详细信息
固有亮度:
5
最大亮度:
2.5
卫星平台:
Starlink v1.5
覆盖范围:
全球
运营商:
太空探索技术公司
运营商所在国:
美国
制造商(研发单位):
太空探索技术公司
制造商所在国:
美国
使用方式:
暂无
卫星简介
星链(Starlink)计划是由太空探索技术公司(SpaceX)提出的一个巨型低轨卫星互联网星座项目,计划在2019年至2024年间在太空搭建由约1.2万颗卫星组成的“星链”网络,其中1584颗将部署在地球上空550千米处的近地轨道,并从2020年开始工作。该卫星仍在工作。
2D轨道图
3D轨道图
轨道高度分析图
轨道倾角分析图
轨道综合分析图
查看轨道综合分析图
交会数据列表
事件ID 空间交会对象 最接近时刻(TCA) 交会距离 交会风险概率(CRP) 交会风险指数(CRI) 操作
CDM_260917-043405-695705-736221
2026-09-17T
04:34:33+0000
1.580 km
极远距离
5.416054E-6 低风险 0.5
CDM_260916-191503-052005-736222
2026-09-16T
19:15:23+0000
1.917 km
极远距离
2.946553E-6 低风险 0.44
CDM_260916-231204-926405-736221
CUPID (49264)
2026-09-16T
23:12:02+0000
2.069 km
极远距离
2.131829E-6 低风险 0.42
CDM_260917-003005-736206-319621
2026-09-17T
00:30:59+0000
2.595 km
极远距离
1.315742E-6 低风险 0.37
与全量物体交会距离演化趋势 订阅飞行安全评估服务
与全量物体交会风险概率演化趋势 订阅飞行安全评估服务